Вернуться в каталог

FENGYUN 1C DEB

АктивенSSO
NORAD 30156·DEBRIS·🇨🇳 China

Запущен May 10, 1999 с Taiyuan Satellite Launch Center

Loading…

Ближайшие Пролёты (ближайшие 24 часа)

TLE

СвежийSource: Space-Track

Эпоха: Sep 14, 2026, 14:50 UTC

1 30156U 99025TM  26257.61855588  .00001019  00000-0  85804-3 0  9997
2 30156  98.9332 214.8360 0195973 242.0002 295.4758 13.81696653984996

Отслеживайте FENGYUN 1C DEB в реальном времени с AllMySat

Download on the App Store